Location: Woodstock
(35.2731°N, 89.9823°W)
Time: 17:56:53
(UTC+00:00)

Vanguard 3 - Pass Details

Date: 25 May 2025
Orbit: 508 x 3215 km, 33.3° (Epoch: 14 June)

Event Time Altitude Azimuth Distance (km) Brightness Sun altitude
Rises 06:34:34 0° 225° (SW) 6,489 - -33.0°
Reaches altitude 10° 06:39:50 10° 219° (SW) 5,082 - -32.8°
Maximum altitude 06:51:43 38° 158° (SSE) 2,367 - -32.2°
Exits shadow 06:54:37 31° 124° (SE) 2,339 9.2 -32.1°
Drops below altitude 10° 06:58:57 10° 93° (E) 3,096 10.2 -31.8°
Sets 07:01:21 0° 85° (E) 3,773 10.8 -31.7°
